20050423,000016,723449,33.660773,-119.830070,4.4,14.244,33.128,40.151,2130.40,0.0,4.955,13.637,13.598, NaN,24.690,   NaN,14.49,1016.56,82.15,14.60,22.8,21.9,2.8,2.8,105.4,105.7,3.4,3.3,NaN, NaN,14.3,306.2,307.0,1114214418,1114214418,1,10.8,000017,000018,309.3,33.660691,-119.830041,10.95,NaN,NaN,14.247, NaN,NaN,NaN, NaN, NaN
20050423,000046,723479,33.661681,-119.831536,4.4,14.269,33.128,40.174,2126.19,0.0,5.069,13.604,13.566, NaN,24.685,   NaN,14.52,1016.54,82.10,14.62,22.8,21.5,2.8,2.8,105.7,106.3,3.4,3.3,NaN, NaN,12.7,303.9,304.5,1114214448,1114214448,1,11.2,000047,000048,309.5,33.661596,-119.831511,10.68,NaN,NaN,14.272, NaN,NaN,NaN, NaN, NaN
20050423,000116,723509,33.662581,-119.833010,4.4,14.287,33.146,40.209,2124.91,0.0,5.276,13.586,13.548, NaN,24.695,   NaN,14.52,1016.58,82.03,14.63,17.9,19.1,2.6,2.7,110.9,109.1,3.4,3.4,NaN, NaN,13.4,306.0,304.3,1114214478,1114214478,1,10.9,000077,000078,309.1,33.662500,-119.832985,10.86,NaN,NaN,14.290, NaN,NaN,NaN, NaN, NaN
20050423,000146,723539,33.663480,-119.834478,4.4,14.295,33.171,40.245,2114.21,0.0,5.295,13.570,13.532, NaN,24.712,   NaN,14.53,1016.59,81.98,14.62,15.0,15.8,2.5,2.6,113.5,111.5,3.4,3.3,NaN, NaN,13.9,305.0,305.6,1114214508,1114214508,1,10.7,000107,000108,309.5,33.663406,-119.834456,10.87,NaN,NaN,14.298, NaN,NaN,NaN, NaN, NaN
20050423,000216,723569,33.664388,-119.835950,4.4,14.298,33.202,40.281,2101.42,0.0,5.182,13.554,13.512, NaN,24.736,   NaN,14.53,1016.63,81.92,14.59,8.4,13.1,2.4,2.5,117.8,114.6,3.6,3.4,NaN, NaN,14.3,307.0,307.3,1114214538,1114214538,1,10.9,000137,000138,309.3,33.664316,-119.835928,10.93,NaN,NaN,14.301, NaN,NaN,NaN, NaN, NaN
20050423,000246,723600,33.665286,-119.837430,4.5,14.298,33.230,40.311,2099.78,0.0,5.276,13.540,13.502, NaN,24.757,   NaN,14.54,1016.59,81.80,14.58,2.0,8.7,2.2,2.2,122.2,118.9,3.7,3.6,NaN, NaN,14.1,302.4,304.3,1114214568,1114214568,1,11.1,000167,000168,309.5,33.665213,-119.837408,10.91,NaN,NaN,14.301, NaN,NaN,NaN, NaN, NaN
20050423,000316,723629,33.666191,-119.838910,4.4,14.289,33.258,40.334,2105.78,0.0,5.295,13.536,13.497, NaN,24.781,   NaN,14.57,1016.59,81.78,14.61,5.1,6.2,2.1,2.0,121.5,121.1,3.7,3.7,NaN, NaN,14.1,307.3,307.5,1114214598,1114214598,1,11.1,000197,000198,308.8,33.666116,-119.838883,10.87,NaN,NaN,14.292, NaN,NaN,NaN, NaN, NaN
20050423,000346,723659,33.667091,-119.840393,4.4,14.255,33.305,40.353,2108.23,0.0,5.163,13.532,13.493, NaN,24.825,   NaN,14.61,1016.59,81.81,14.62,4.1,5.0,1.9,2.0,122.2,121.8,3.8,3.8,NaN, NaN,14.0,307.1,306.1,1114214628,1114214628,1,11.1,000227,000228,309.5,33.667010,-119.840366,10.79,NaN,NaN,14.258, NaN,NaN,NaN, NaN, NaN
20050423,000416,723689,33.667990,-119.841883,4.4,14.225,33.344,40.367,2066.98,0.0,5.106,13.532,13.493, NaN,24.861,   NaN,14.66,1016.57,81.85,14.63,2.8,3.5,1.9,1.9,123.0,122.8,3.8,3.8,NaN, NaN,13.5,306.3,304.9,1114214658,1114214658,1,11.2,000257,000258,309.5,33.667910,-119.841858,10.76,NaN,NaN,14.228, NaN,NaN,NaN, NaN, NaN
20050423,000446,723719,33.668893,-119.843373,4.4,14.152,33.407,40.367,2018.99,0.0,5.408,13.536,13.497, NaN,24.924,   NaN,14.69,1016.60,81.79,14.65,3.7,3.6,2.0,2.0,122.2,122.4,3.7,3.7,NaN, NaN,14.4,308.0,306.5,1114214688,1114214688,1,11.0,000287,000288,309.5,33.668811,-119.843346,10.79,NaN,NaN,14.155, NaN,NaN,NaN, NaN, NaN
20050423,000516,723749,33.669801,-119.844871,4.5,14.070,33.477,40.366,804.05,0.0,5.522,13.547,13.508, NaN,24.996,   NaN,14.64,1016.60,82.01,14.60,3.0,1.5,2.0,2.2,122.6,123.1,3.8,3.6,NaN, NaN,14.2,305.4,305.5,1114214718,1114214718,1,10.7,000317,000318,309.5,33.669715,-119.844841,11.07,NaN,NaN,14.073, NaN,NaN,NaN, NaN, NaN
20050423,000546,723779,33.670710,-119.846361,4.4,14.048,33.485,40.353,677.31,0.0,5.522,13.552,13.514, NaN,25.006,   NaN,14.49,1016.60,82.24,14.53,357.6,358.1,2.1,2.3,126.0,125.1,3.6,3.5,NaN, NaN,14.4,308.3,306.0,1114214748,1114214748,1,11.1,000347,000348,309.3,33.670626,-119.846335,10.90,NaN,NaN,14.051, NaN,NaN,NaN, NaN, NaN
20050423,000616,723809,33.671620,-119.847855,4.4,14.027,33.485,40.334,607.87,0.0,5.106,13.556,13.518, NaN,25.011,   NaN,14.40,1016.59,82.40,14.47,355.4,355.2,2.3,2.3,127.5,127.0,3.4,3.4,NaN, NaN,13.9,306.8,305.4,1114214778,1114214778,1,11.0,000377,000378,309.5,33.671538,-119.847828,10.96,NaN,NaN,14.030, NaN,NaN,NaN, NaN, NaN
20050423,000646,723839,33.672538,-119.849345,4.4,13.989,33.496,40.310,577.60,0.0,5.050,13.547,13.508, NaN,25.027,   NaN,14.30,1016.55,82.38,14.43,355.2,354.0,2.5,2.4,128.3,128.6,3.3,3.4,NaN, NaN,13.8,307.0,305.9,1114214808,1114214808,1,11.4,000407,000408,309.0,33.672460,-119.849321,10.88,NaN,NaN,13.992, NaN,NaN,NaN, NaN, NaN
20050423,000716,723869,33.673461,-119.850848,4.4,13.951,33.499,40.278,563.69,0.0,5.031,13.532,13.491, NaN,25.037,   NaN,14.26,1016.55,82.67,14.42,356.2,356.5,2.6,2.5,127.7,127.0,3.2,3.2,NaN, NaN,14.6,308.3,306.7,1114214838,1114214838,1,11.3,000437,000438,309.0,33.673381,-119.850828,11.03,NaN,NaN,13.954, NaN,NaN,NaN, NaN, NaN
20050423,000746,723899,33.674385,-119.852350,4.4,13.903,33.512,40.246,556.35,0.0,5.371,13.516,13.477, NaN,25.057,   NaN,14.24,1016.56,82.78,14.44,357.6,357.5,2.5,2.6,126.4,126.3,3.4,3.2,NaN, NaN,14.2,306.2,305.6,1114214868,1114214868,1,11.3,000467,000468,309.0,33.674301,-119.852326,11.04,NaN,NaN,13.906, NaN,NaN,NaN, NaN, NaN
20050423,000816,723929,33.675300,-119.853856,4.4,13.914,33.470,40.212,552.13,0.0,6.352,13.496,13.458, NaN,25.022,   NaN,14.18,1016.52,82.87,14.43,359.2,356.6,2.5,2.4,125.8,126.5,3.7,3.4,NaN, NaN,14.6,307.7,307.0,1114214898,1114214898,1,11.2,000497,000498,309.5,33.675216,-119.853835,11.11,NaN,NaN,13.917, NaN,NaN,NaN, NaN, NaN
20050423,000846,723959,33.676228,-119.855361,4.4,13.950,33.418,40.189,547.83,0.0,6.937,13.474,13.435, NaN,24.975,   NaN,14.13,1016.54,82.97,14.38,359.9,358.2,2.4,2.2,125.5,125.4,3.8,3.6,NaN, NaN,14.3,304.2,304.6,1114214928,1114214928,1,11.2,000527,000528,309.3,33.676145,-119.855336,10.90,NaN,NaN,13.953, NaN,NaN,NaN, NaN, NaN
20050423,000916,723989,33.677153,-119.856868,4.4,13.984,33.360,40.159,548.24,0.0,7.183,13.451,13.412, NaN,24.923,   NaN,14.11,1016.55,83.28,14.36,358.4,359.3,2.4,2.2,125.5,124.9,3.4,3.6,NaN, NaN,14.6,305.7,305.1,1114214958,1114214958,1,10.9,000557,000558,309.5,33.677070,-119.856836,11.17,NaN,NaN,13.987, NaN,NaN,NaN, NaN, NaN
20050423,000946,724019,33.678080,-119.858365,4.4,13.991,33.335,40.138,553.39,0.0,7.579,13.435,13.396, NaN,24.903,   NaN,14.10,1016.55,83.35,14.36,0.4,357.9,2.4,2.4,124.3,125.4,3.4,3.4,NaN, NaN,14.5,304.6,305.2,1114214988,1114214988,1,11.2,000587,000588,309.3,33.677998,-119.858331,10.83,NaN,NaN,13.994, NaN,NaN,NaN, NaN, NaN
20050423,001017,724050,33.679005,-119.859868,4.4,14.033,33.290,40.129,565.25,0.0,7.825,13.415,13.374, NaN,24.859,   NaN,14.06,1016.55,83.49,14.33,1.4,358.6,2.6,2.7,123.3,124.4,3.2,3.1,NaN, NaN,15.7,307.0,307.9,1114215018,1114215018,1,11.1,000617,000618,309.0,33.678925,-119.859826,11.08,NaN,NaN,14.036, NaN,NaN,NaN, NaN, NaN
20050423,001046,724079,33.679925,-119.861381,4.4,14.064,33.252,40.116,580.14,0.0,8.127,13.389,13.348, NaN,24.823,   NaN,14.04,1016.52,83.65,14.32,359.6,0.1,2.9,2.9,123.9,123.2,2.9,2.9,NaN, NaN,15.2,307.4,306.7,1114215048,1114215048,1,11.4,000647,000648,309.0,33.679853,-119.861340,11.14,NaN,NaN,14.067, NaN,NaN,NaN, NaN, NaN
20050423,001116,724109,33.680845,-119.862895,4.3,14.101,33.221,40.117,594.99,0.0,8.429,13.348,13.307, NaN,24.791,   NaN,14.02,1016.53,83.82,14.29,1.1,1.4,3.0,3.0,122.0,121.4,2.9,2.9,NaN, NaN,15.8,308.0,307.3,1114215078,1114215078,1,11.3,000677,000678,309.3,33.680775,-119.862853,11.14,NaN,NaN,14.104, NaN,NaN,NaN, NaN, NaN
20050423,001146,724139,33.681766,-119.864406,4.4,14.118,33.217,40.130,618.66,0.0,8.900,13.309,13.267, NaN,24.785,   NaN,13.95,1016.43,83.80,14.25,3.0,3.5,2.9,3.1,120.1,118.8,2.9,2.8,NaN, NaN,14.1,302.4,303.6,1114215108,1114215108,1,11.2,000707,000708,309.0,33.681695,-119.864363,11.11,NaN,NaN,14.121, NaN,NaN,NaN, NaN, NaN
20050423,001216,724169,33.682686,-119.865906,4.4,14.120,33.219,40.133,649.46,0.0,9.372,13.296,13.255, NaN,24.786,   NaN,13.87,1016.46,83.93,14.19,5.9,6.3,3.1,3.2,116.8,115.8,2.8,2.7,NaN, NaN,14.9,305.4,305.4,1114215138,1114215138,1,11.2,000737,000738,309.5,33.682616,-119.865871,11.02,NaN,NaN,14.123, NaN,NaN,NaN, NaN, NaN
20050423,001246,724199,33.683611,-119.867411,4.4,14.112,33.239,40.147,692.30,0.0,10.203,13.314,13.275, NaN,24.803,   NaN,13.84,1016.41,84.10,14.14,10.3,10.4,3.1,3.3,111.9,110.3,2.9,2.7,NaN, NaN,15.1,305.7,305.5,1114215168,1114215168,1,11.0,000767,000768,309.8,33.683536,-119.867375,11.35,NaN,NaN,14.115, NaN,NaN,NaN, NaN, NaN
20050423,001316,724229,33.684548,-119.868925,4.5,14.112,33.252,40.162,769.83,0.0,11.015,13.340,13.300, NaN,24.813,   NaN,13.85,1016.42,84.33,14.15,11.8,12.1,3.1,3.3,110.8,108.9,2.9,2.8,NaN, NaN,15.0,308.3,307.7,1114215198,1114215198,1,11.5,000797,000798,309.1,33.684476,-119.868891,11.15,NaN,NaN,14.115, NaN,NaN,NaN, NaN, NaN
20050423,001346,724259,33.685465,-119.870441,4.4,14.095,33.278,40.174,1196.64,0.0,11.883,13.352,13.311, NaN,24.837,   NaN,13.85,1016.42,84.29,14.18,12.9,12.1,3.2,3.3,108.6,108.0,2.9,2.8,NaN, NaN,14.6,304.5,305.3,1114215228,1114215228,1,11.2,000827,000828,309.8,33.685395,-119.870410,11.10,NaN,NaN,14.098, NaN,NaN,NaN, NaN, NaN
20050423,001416,724289,33.686380,-119.871941,4.4,14.072,33.305,40.182,1485.68,0.0,12.412,13.368,13.330, NaN,24.862,   NaN,13.87,1016.35,84.16,14.17,11.5,12.6,3.1,3.3,110.3,106.9,2.9,2.8,NaN, NaN,14.4,306.0,306.1,1114215258,1114215258,1,11.1,000857,000858,309.1,33.686310,-119.871905,10.98,NaN,NaN,14.075, NaN,NaN,NaN, NaN, NaN
20050423,001446,724319,33.687291,-119.873431,4.4,14.070,33.308,40.183,2212.69,0.0,13.148,13.393,13.355, NaN,24.865,   NaN,13.98,1016.37,84.17,14.25,10.7,11.8,3.1,3.4,110.4,106.8,2.8,2.6,NaN, NaN,14.4,304.8,306.5,1114215288,1114215288,1,11.0,000887,000888,309.1,33.687223,-119.873395,10.93,NaN,NaN,14.073, NaN,NaN,NaN, NaN, NaN
20050423,001516,724349,33.688191,-119.874928,4.4,14.065,33.309,40.180,2228.27,0.0,13.242,13.417,13.381, NaN,24.867,   NaN,14.09,1016.35,84.00,14.32,13.2,14.0,3.2,3.4,107.0,104.3,2.8,2.7,NaN, NaN,13.7,304.9,304.7,1114215318,1114215318,1,11.1,000917,000918,309.3,33.688123,-119.874893,11.04,NaN,NaN,14.068, NaN,NaN,NaN, NaN, NaN
20050423,001546,724379,33.689096,-119.876416,4.4,14.077,33.283,40.162,1834.28,0.0,13.374,13.477,13.441, NaN,24.844,   NaN,14.14,1016.39,84.01,14.33,13.8,15.0,3.3,3.4,105.4,103.0,2.7,2.7,NaN, NaN,14.4,304.2,305.1,1114215348,1114215348,1,11.0,000947,000948,309.6,33.689028,-119.876381,11.02,NaN,NaN,14.080, NaN,NaN,NaN, NaN, NaN
20050423,001616,724409,33.689975,-119.877915,4.4,14.081,33.275,40.158,1435.90,0.0,12.940,13.552,13.520, NaN,24.837,   NaN,14.09,1016.35,84.23,14.28,14.2,15.1,3.3,3.5,104.4,101.7,2.7,2.7,NaN, NaN,18.5,307.9,307.1,1114215378,1114215378,1,10.9,000977,000978,309.0,33.689931,-119.877855,10.74,NaN,NaN,14.084, NaN,NaN,NaN, NaN, NaN
20050423,001646,724439,33.690876,-119.879380,4.4,14.105,33.298,40.205,1347.70,0.0,12.487,13.614,13.582, NaN,24.850,   NaN,14.05,1016.36,84.42,14.25,16.1,16.9,3.2,3.4,104.2,100.6,2.8,2.7,NaN, NaN,18.6,304.2,306.1,1114215408,1114215408,1,10.8,001007,001008,309.3,33.690828,-119.879323,10.95,NaN,NaN,14.108, NaN,NaN,NaN, NaN, NaN
20050423,001716,724469,33.691773,-119.880843,4.4,14.134,33.271,40.203,940.51,0.0,11.732,13.661,13.627, NaN,24.824,   NaN,14.04,1016.32,84.56,14.27,17.2,18.8,3.0,3.2,106.1,102.5,3.0,2.9,NaN, NaN,17.6,306.1,306.8,1114215438,1114215438,1,11.1,001037,001038,308.8,33.691718,-119.880785,10.61,NaN,NaN,14.137, NaN,NaN,NaN, NaN, NaN
20050423,001746,724499,33.692665,-119.882290,4.5,14.165,33.246,40.205,756.36,0.0,11.090,13.695,13.663, NaN,24.798,   NaN,14.00,1016.32,84.75,14.21,17.9,19.6,2.8,3.0,107.8,104.4,3.1,3.1,NaN, NaN,17.8,308.4,307.1,1114215468,1114215468,1,10.9,001067,001068,309.5,33.692608,-119.882236,10.58,NaN,NaN,14.168, NaN,NaN,NaN, NaN, NaN
20050423,001817,724530,33.693555,-119.883733,4.4,14.225,33.200,40.211,758.15,0.0,10.071,13.730,13.697, NaN,24.750,   NaN,13.99,1016.34,84.90,14.21,18.8,19.5,2.9,3.1,106.7,103.7,3.1,3.0,NaN, NaN,17.6,305.0,305.7,1114215498,1114215498,1,11.0,001097,001098,309.0,33.693498,-119.883671,10.51,NaN,NaN,14.228, NaN,NaN,NaN, NaN, NaN
20050423,001846,724559,33.694466,-119.885146,4.4,14.263,33.176,40.220,753.23,0.0,9.542,13.762,13.730, NaN,24.723,   NaN,13.96,1016.34,84.93,14.22,19.8,20.3,2.9,3.1,104.7,102.2,3.1,2.9,NaN, NaN,14.7,302.0,305.0,1114215528,1114215528,1,10.7,001127,001128,309.1,33.694378,-119.885106,10.66,NaN,NaN,14.266, NaN,NaN,NaN, NaN, NaN
20050423,001916,724589,33.695346,-119.886588,4.4,14.306,33.155,40.237,946.71,0.0,9.561,13.804,13.774, NaN,24.697,   NaN,13.91,1016.41,84.91,14.19,21.3,22.4,2.9,3.1,103.7,101.2,3.1,3.1,NaN, NaN,18.5,305.6,306.4,1114215558,1114215558,1,10.7,001157,001158,309.3,33.695263,-119.886545,10.73,NaN,NaN,14.309, NaN,NaN,NaN, NaN, NaN
20050423,001946,724619,33.696221,-119.888026,4.5,14.324,33.164,40.264,1455.24,0.0,9.580,13.853,13.822, NaN,24.701,   NaN,13.92,1016.39,84.76,14.15,19.9,21.7,2.9,3.0,105.3,102.0,3.1,3.1,NaN, NaN,18.7,303.6,305.1,1114215588,1114215588,1,10.6,001187,001188,309.3,33.696135,-119.887980,10.53,NaN,NaN,14.327, NaN,NaN,NaN, NaN, NaN
20050423,002016,724649,33.697096,-119.889471,4.4,14.343,33.174,40.293,1134.54,0.0,9.901,13.893,13.861, NaN,24.705,   NaN,13.97,1016.42,84.81,14.18,17.5,18.4,2.9,3.1,105.4,103.1,3.0,2.9,NaN, NaN,17.8,305.9,305.4,1114215618,1114215618,1,10.8,001217,001218,309.3,33.697011,-119.889431,10.65,NaN,NaN,14.346, NaN,NaN,NaN, NaN, NaN
20050423,002046,724679,33.697975,-119.890920,4.4,14.363,33.185,40.324,1223.74,0.0,10.354,13.902,13.865, NaN,24.709,   NaN,13.99,1016.41,84.84,14.19,16.7,16.3,2.9,3.0,106.5,105.7,3.0,2.9,NaN, NaN,18.4,307.2,307.0,1114215648,1114215648,1,10.8,001247,001248,309.6,33.697893,-119.890885,10.81,NaN,NaN,14.366, NaN,NaN,NaN, NaN, NaN
20050423,002116,724709,33.698856,-119.892371,4.5,14.388,33.189,40.351,1755.84,0.0,10.543,13.885,13.851, NaN,24.707,   NaN,14.03,1016.38,84.67,14.25,18.2,18.6,2.7,2.9,107.2,104.5,3.2,3.0,NaN, NaN,18.2,305.2,306.3,1114215678,1114215678,1,10.9,001277,001278,309.3,33.698776,-119.892333,10.66,NaN,NaN,14.391, NaN,NaN,NaN, NaN, NaN
20050423,002146,724739,33.699740,-119.893825,4.4,14.446,33.163,40.377,2007.48,0.0,10.278,13.877,13.845, NaN,24.674,   NaN,14.12,1016.42,84.41,14.27,19.1,20.3,2.8,3.0,106.1,102.4,3.1,3.0,NaN, NaN,17.8,307.1,307.0,1114215708,1114215708,1,10.7,001307,001308,309.3,33.699661,-119.893785,10.41,NaN,NaN,14.449, NaN,NaN,NaN, NaN, NaN
20050423,002216,724769,33.700621,-119.895271,4.5,14.492,33.147,40.402,2112.37,0.0,10.241,13.859,13.825, NaN,24.652,   NaN,14.22,1016.38,84.29,14.34,19.4,20.0,2.7,2.9,106.9,104.6,3.2,3.1,NaN, NaN,18.1,306.1,305.6,1114215738,1114215738,1,11.0,001337,001338,309.3,33.700551,-119.895230,10.57,NaN,NaN,14.495, NaN,NaN,NaN, NaN, NaN
20050423,002246,724799,33.701496,-119.896711,4.4,14.505,33.160,40.429,2109.70,0.0,10.354,13.828,13.791, NaN,24.660,   NaN,14.28,1016.35,84.14,14.35,16.8,16.2,2.6,2.6,110.6,110.3,3.3,3.2,NaN, NaN,18.1,308.9,307.5,1114215768,1114215768,1,10.9,001367,001368,309.1,33.701431,-119.896673,10.68,NaN,NaN,14.508, NaN,NaN,NaN, NaN, NaN
20050423,002316,724829,33.702383,-119.898153,4.4,14.484,33.206,40.460,2114.68,0.0,10.505,13.792,13.756, NaN,24.699,   NaN,14.34,1016.37,84.09,14.39,14.9,15.8,2.6,2.7,111.7,109.9,3.2,3.1,NaN, NaN,17.9,308.0,307.3,1114215798,1114215798,1,10.9,001397,001398,309.3,33.702318,-119.898116,10.51,NaN,NaN,14.487, NaN,NaN,NaN, NaN, NaN
20050423,002346,724859,33.703273,-119.899613,4.4,14.409,33.299,40.491,2105.53,0.0,9.901,13.773,13.736, NaN,24.787,   NaN,14.43,1016.45,84.17,14.45,16.0,17.9,2.7,3.0,109.9,105.7,3.1,3.0,NaN, NaN,19.0,306.3,307.7,1114215828,1114215828,1,10.9,001427,001428,309.3,33.703205,-119.899573,10.75,NaN,NaN,14.412, NaN,NaN,NaN, NaN, NaN
20050423,002416,724889,33.704170,-119.901075,4.4,14.355,33.366,40.513,2089.46,0.0,9.542,13.748,13.711, NaN,24.850,   NaN,14.46,1016.44,83.94,14.48,15.6,15.8,2.8,2.9,109.1,107.3,3.1,3.0,NaN, NaN,17.3,306.0,305.9,1114215858,1114215858,1,11.2,001457,001458,309.3,33.704096,-119.901036,10.82,NaN,NaN,14.358, NaN,NaN,NaN, NaN, NaN
20050423,002447,724920,33.705068,-119.902535,4.5,14.253,33.464,40.523,2080.38,0.0,8.976,13.715,13.678, NaN,24.947,   NaN,14.47,1016.42,83.92,14.49,15.1,15.2,2.9,3.0,109.2,107.7,3.0,2.9,NaN, NaN,17.4,305.5,306.2,1114215888,1114215888,1,10.9,001487,001488,309.2,33.704988,-119.902493,10.92,NaN,NaN,14.256, NaN,NaN,NaN, NaN, NaN
20050423,002516,724950,33.705973,-119.903995,4.5,14.214,33.491,40.517,2079.73,0.0,8.995,13.697,13.661, NaN,24.976,   NaN,14.51,1016.42,84.03,14.55,16.7,15.5,2.9,3.1,107.7,105.8,3.0,2.8,NaN, NaN,17.1,304.0,304.6,1114215918,1114215918,1,11.0,001517,001518,309.3,33.705893,-119.903958,10.76,NaN,NaN,14.217, NaN,NaN,NaN, NaN, NaN
20050423,002546,724979,33.706883,-119.905446,4.4,14.196,33.492,40.500,2087.12,0.0,8.900,13.691,13.654, NaN,24.981,   NaN,14.52,1016.46,83.88,14.57,20.4,18.8,2.9,3.0,106.5,105.2,3.2,3.0,NaN, NaN,18.3,307.7,308.1,1114215948,1114215948,1,10.7,001547,001548,309.8,33.706805,-119.905411,10.78,NaN,NaN,14.199, NaN,NaN,NaN, NaN, NaN
20050423,002616,725009,33.707786,-119.906895,4.3,14.210,33.461,40.480,2063.21,0.0,8.693,13.691,13.658, NaN,24.954,   NaN,14.43,1016.43,83.69,14.53,23.8,22.3,2.6,2.8,107.2,106.4,3.4,3.3,NaN, NaN,17.2,307.7,305.4,1114215978,1114215978,1,11.2,001577,001578,309.6,33.707706,-119.906866,10.63,NaN,NaN,14.213, NaN,NaN,NaN, NaN, NaN
20050423,002646,725039,33.708703,-119.908335,4.4,14.206,33.438,40.452,1830.60,0.0,8.504,13.689,13.653, NaN,24.937,   NaN,14.39,1016.42,83.76,14.47,21.9,21.4,2.6,2.7,109.1,108.3,3.4,3.3,NaN, NaN,17.6,306.8,308.0,1114216008,1114216008,1,10.8,001607,001608,309.3,33.708623,-119.908300,10.68,NaN,NaN,14.209, NaN,NaN,NaN, NaN, NaN
20050423,002716,725069,33.709606,-119.909775,4.4,14.202,33.423,40.431,1817.97,0.0,8.598,13.681,13.641, NaN,24.926,   NaN,14.37,1016.42,83.88,14.47,19.7,19.7,2.5,2.8,110.8,108.2,3.4,3.2,NaN, NaN,17.3,305.2,306.1,1114216038,1114216038,1,10.9,001637,001638,309.3,33.709535,-119.909748,10.68,NaN,NaN,14.205, NaN,NaN,NaN, NaN, NaN
20050423,002746,725099,33.710513,-119.911201,4.2,14.204,33.402,40.410,1253.93,0.0,8.504,13.667,13.628, NaN,24.909,   NaN,14.37,1016.42,84.01,14.46,21.7,21.0,2.6,2.8,109.0,107.3,3.4,3.2,NaN, NaN,17.1,306.6,307.2,1114216068,1114216068,1,10.9,001667,001668,308.8,33.710443,-119.911173,10.75,NaN,NaN,14.207, NaN,NaN,NaN, NaN, NaN
20050423,002816,725129,33.711418,-119.912625,4.3,14.214,33.377,40.393,1053.21,0.0,8.278,13.661,13.623, NaN,24.889,   NaN,14.25,1016.38,83.97,14.40,24.7,24.3,2.7,2.7,106.4,106.0,3.4,3.3,NaN, NaN,17.4,307.3,307.0,1114216098,1114216098,1,10.9,001697,001698,309.1,33.711345,-119.912596,10.64,NaN,NaN,14.217, NaN,NaN,NaN, NaN, NaN
20050423,002846,725159,33.712321,-119.914036,4.3,14.235,33.345,40.378,1289.73,0.0,8.617,13.655,13.618, NaN,24.859,   NaN,14.22,1016.45,84.23,14.38,25.9,24.5,2.8,2.9,104.7,104.0,3.3,3.2,NaN, NaN,17.4,305.6,306.7,1114216128,1114216128,1,10.3,001727,001728,309.5,33.712241,-119.914005,10.65,NaN,NaN,14.238, NaN,NaN,NaN, NaN, NaN
20050423,002916,725189,33.713223,-119.915455,4.3,14.249,33.325,40.369,1666.74,0.0,8.334,13.674,13.639, NaN,24.841,   NaN,14.24,1016.45,84.21,14.46,24.4,22.5,2.9,3.1,103.4,102.3,3.2,3.0,NaN, NaN,16.9,306.0,306.3,1114216158,1114216158,1,10.7,001757,001758,309.0,33.713145,-119.915423,10.50,NaN,NaN,14.252, NaN,NaN,NaN, NaN, NaN
20050423,002947,725220,33.714158,-119.916818,4.4,14.285,33.289,40.364,2056.27,0.0,8.466,13.692,13.655, NaN,24.806,   NaN,14.31,1016.42,84.00,14.53,26.2,23.8,2.8,3.0,104.5,104.1,3.2,3.1,NaN, NaN,17.4,309.1,309.7,1114216188,1114216188,1,10.5,001787,001788,308.8,33.714083,-119.916780,10.45,NaN,NaN,14.288, NaN,NaN,NaN, NaN, NaN
20050423,003016,725249,33.715065,-119.918163,4.4,14.309,33.266,40.362,2024.69,0.0,8.768,13.601,13.555, NaN,24.783,   NaN,14.36,1016.37,83.95,14.56,29.3,27.2,2.6,2.7,106.6,106.9,3.4,3.3,NaN, NaN,18.1,309.1,309.3,1114216218,1114216218,1,10.0,001817,001818,309.0,33.714990,-119.918113,10.22,NaN,NaN,14.312, NaN,NaN,NaN, NaN, NaN
20050423,003046,725279,33.715963,-119.919505,4.4,14.334,33.249,40.366,2004.40,0.0,8.900,13.464,13.416, NaN,24.764,   NaN,14.34,1016.38,83.82,14.56,31.4,31.1,2.5,2.5,107.1,107.0,3.5,3.5,NaN, NaN,18.3,310.2,310.3,1114216248,1114216248,1,10.5,001847,001848,308.8,33.715890,-119.919455,10.08,NaN,NaN,14.337, NaN,NaN,NaN, NaN, NaN
20050423,003116,725309,33.716865,-119.920835,4.4,14.363,33.231,40.374,1970.66,0.0,8.863,13.359,13.314, NaN,24.744,   NaN,14.33,1016.36,83.95,14.56,33.6,33.7,2.5,2.6,105.1,104.8,3.5,3.5,NaN, NaN,18.4,309.2,309.2,1114216278,1114216278,1,10.4,001877,001878,308.8,33.716791,-119.920781,10.35,NaN,NaN,14.366, NaN,NaN,NaN, NaN, NaN
20050423,003146,725339,33.717766,-119.922161,4.3,14.401,33.209,40.385,1947.45,0.0,8.240,13.275,13.229, NaN,24.720,   NaN,14.30,1016.39,83.90,14.56,35.6,35.9,2.6,2.6,104.0,104.5,3.5,3.5,NaN, NaN,18.3,308.5,308.8,1114216308,1114216308,1,10.4,001907,001908,309.1,33.717688,-119.922115,10.15,NaN,NaN,14.404, NaN,NaN,NaN, NaN, NaN
20050423,003216,725369,33.718670,-119.923490,4.4,14.413,33.215,40.403,1931.81,0.0,7.296,13.192,13.148, NaN,24.721,   NaN,14.23,1016.38,83.89,14.51,36.8,36.4,2.5,2.3,105.3,107.4,3.6,3.7,NaN, NaN,17.8,310.2,309.5,1114216338,1114216338,1,10.2,001937,001938,309.6,33.718583,-119.923446,10.16,NaN,NaN,14.416, NaN,NaN,NaN, NaN, NaN
20050423,003247,725400,33.719605,-119.924853,4.4,14.378,33.262,40.422,1908.77,0.0,6.918,13.113,13.066, NaN,24.765,   NaN,14.21,1016.36,84.04,14.50,39.3,38.0,2.3,2.2,107.0,108.7,3.8,3.8,NaN, NaN,17.5,309.2,310.8,1114216368,1114216368,1,10.7,001968,001968,309.0,33.719488,-119.924771,9.99,NaN,NaN,14.381, NaN,NaN,NaN, NaN, NaN
20050423,003317,725430,33.720478,-119.926140,4.3,14.335,33.316,40.440,1888.17,0.0,6.447,13.057,13.011, NaN,24.816,   NaN,14.26,1016.44,84.23,14.52,37.2,37.0,2.3,2.3,107.1,107.4,3.7,3.7,NaN, NaN,17.5,308.5,309.5,1114216398,1114216398,1,10.5,001997,001998,309.5,33.720395,-119.926108,10.18,NaN,NaN,14.338, NaN,NaN,NaN, NaN, NaN
20050423,003346,725459,33.721363,-119.927456,4.5,14.174,33.467,40.453,1870.15,0.0,6.484,13.019,12.973, NaN,24.966,   NaN,14.28,1016.38,84.27,14.56,38.2,37.7,2.3,2.3,107.2,107.7,3.8,3.7,NaN, NaN,17.6,309.6,309.7,1114216428,1114216428,1,10.0,002027,002028,309.7,33.721303,-119.927408,10.09,NaN,NaN,14.177, NaN,NaN,NaN, NaN, NaN
20050423,003416,725489,33.722256,-119.928771,4.4,14.108,33.521,40.449,1859.37,0.0,6.579,12.958,12.910, NaN,25.021,   NaN,14.28,1016.39,84.29,14.55,35.5,35.5,2.3,2.2,108.4,109.9,3.7,3.7,NaN, NaN,16.6,307.3,308.0,1114216458,1114216458,1,10.5,002057,002058,309.0,33.722195,-119.928731,9.85,NaN,NaN,14.111, NaN,NaN,NaN, NaN, NaN
20050423,003446,725519,33.723143,-119.930093,4.4,13.977,33.614,40.427,1852.59,0.0,6.937,12.898,12.851, NaN,25.121,   NaN,14.30,1016.40,84.35,14.57,31.7,32.5,2.3,2.3,109.4,108.5,3.6,3.5,NaN, NaN,16.5,310.9,310.6,1114216488,1114216488,1,10.2,002087,002088,309.8,33.723090,-119.930051,10.09,NaN,NaN,13.980, NaN,NaN,NaN, NaN, NaN
20050423,003516,725549,33.724048,-119.931405,4.4,13.925,33.626,40.390,1843.76,0.0,7.371,12.858,12.810, NaN,25.141,   NaN,14.26,1016.39,84.27,14.54,33.5,35.8,2.3,2.3,108.6,108.2,3.6,3.7,NaN, NaN,16.5,308.1,310.3,1114216518,1114216518,1,10.4,002117,002118,309.0,33.723995,-119.931366,9.91,NaN,NaN,13.928, NaN,NaN,NaN, NaN, NaN
20050423,003546,725579,33.724948,-119.932730,4.2,13.841,33.660,40.347,1836.24,0.0,7.334,12.832,12.787, NaN,25.185,   NaN,14.29,1016.38,84.45,14.55,34.1,35.7,2.3,2.1,108.7,110.3,3.6,3.7,NaN, NaN,16.5,308.9,309.4,1114216548,1114216548,1,10.4,002147,002148,309.6,33.724896,-119.932690,10.15,NaN,NaN,13.844, NaN,NaN,NaN, NaN, NaN
20050423,003616,725609,33.725870,-119.934033,4.3,13.794,33.651,40.293,1827.96,0.0,7.485,12.838,12.796, NaN,25.188,   NaN,14.25,1016.38,84.34,14.53,35.2,36.0,2.3,2.1,108.6,110.3,3.6,3.7,NaN, NaN,17.2,310.7,310.2,1114216578,1114216578,1,10.5,002177,002178,308.8,33.725820,-119.933996,10.05,NaN,NaN,13.797, NaN,NaN,NaN, NaN, NaN